Погода в Кальтаниссетте

Италия     37°29′06″N   14°02′01″E
темп.,
°C
ветер,
м/с
пор.,
м/с
влажн.,
%
обл.,
%
осадки,
мм/ч
давл.,
гПа
погр.,
м
21 апреля, ср
ср2123:00+7вюв008889 0.0 102010
02:00+6св229089 0.0 102012
05:00+6св22905 0.0 101913
08:00+10всв227490 0.0 1019112
11:00+16ююв455394 0.0 10191033
14:00+18ю6653100 0.0 10181172
17:00+17ю5658100 0.0 1017860
20:00+12ююв2289100 0.1 101828
22 апреля, чт
чт2223:00+11всв2392100 0.0 101960
02:00+11св3594100 0.1 1018226
05:00+11всв4893100 0.0 1017297
08:00+12в2490100 0.4 1020216
11:00+16вюв81350100 0.3 1018999
14:00+19юв71045100 0.3 10161158
17:00+15в6863100 0.2 1016739
20:00+12св2378100 0.2 101658
23 апреля, пт
пт2323:00+11всв3781100 0.0 1016221
02:00+10с2287100 0.1 101740
05:00+10всв3385100 0.0 101567
08:00+12всв3679100 0.1 1014280
11:00+17всв7864100 0.0 1014717
14:00+17в7860100 0.0 1014837
17:00+15вюв6862100 0.1 1014856
20:00+11всв2683100 0.5 1014405
24 апреля, сб
сб2423:00+10зсз1297100 8.3 101587
02:00+10ссз1296100 10.3 101498
05:00+11ссз239428 0.1 1013162
08:00+11ссз248837 0.1 1014361
11:00+14с467256 0.1 1015963
14:00+17с565922 0.2 10151288
17:00+17с45557 0.0 10151358
20:00+11с33820 0.0 101735
25 апреля, вс
вс2523:00+8с22890 0.0 102023
02:00+7с22860 0.0 102014
05:00+6с22860 0.0 102013
08:00+11с22713 0.0 1020146
11:00+18сз11430 0.0 1020964
14:00+21зюз32345 0.0 10191718
17:00+19зюз65525 0.0 10191012
20:00+12юз22865 0.0 102016